Regional Weather Roundup
Issued by NWS

Home | Current Version | Previous Version | Text Only | Print | Product List | Glossary On
Versions: 1 2 3 4 5 6 7 8 9 10 11 12 13 14 15 16 17 18 19 20 21 22 23 24 25 26 27
000
ASUS45 KSLC 010610
RWRUT

UTAH REGIONAL WEATHER ROUNDUP
NATIONAL WEATHER SERVICE SALT LAKE CITY UT
1200 AM MDT WED JUN 01 2016

UTZ001>011-023>025-010700-

NORTHERN UTAH

CITY           SKY/WX    TMP DP  RH WIND       PRES   REMARKS
BRIGHAM CITY     N/A     62  40  44 W3        30.08S
HILL AFB       CLEAR     58  38  46 E9        30.08F
LOGAN          CLEAR     57  43  59 S5        30.10R
OGDEN          CLEAR     58  39  49 S7        30.06F
PROVO AIRPORT  CLEAR     61  37  41 SE10      30.06S
SALT LAKE CITY CLEAR     63  38  39 S3        30.05F
VERNAL         MOCLDY    62  34  35 N6        30.06S
WENDOVER       CLEAR     70  27  19 N16G23    30.07F
HEBER CITY     CLEAR     45  34  65 CALM      30.12R
WEST JORDAN    CLEAR     57  32  38 CALM      30.09S

$$

UTZ012>022-026-027-010700-

SOUTHERN/CENTRAL UTAH

CITY           SKY/WX    TMP DP  RH WIND       PRES   REMARKS
BLANDING       CLEAR     56  22  26 N7        30.08F
BRYCE CANYON   CLEAR     49  20  31 NW12      30.20S
CEDAR CITY     CLEAR     50  23  34 N5        30.08S
DELTA          CLEAR     57  28  33 N6        30.08R
HANKSVILLE     CLEAR     63  25  23 CALM      29.99R
MILFORD        CLEAR     54  17  23 N7        30.07S
MOAB/CYNLANDS  CLEAR     74  25  16 N6        29.94R
PRICE          CLEAR     61  25  25 N8        30.08S
ST GEORGE      CLEAR     81  23  12 NE23      29.89R
KANAB          CLEAR     68  21  17 N13       30.02

$$

REGIONAL REPORTS     COLORADO/ARIZONA

CITY           SKY/WX    TMP DP  RH WIND       PRES   REMARKS
CRAIG, CO      CLEAR     42  36  79 CALM      30.12S
GRAND JUNCTION CLEAR     69  29  22 W5        29.98S
RIFLE          CLEAR     51  33  50 SE8       30.05S
MONTROSE       CLEAR     56  34  43 SE6       30.05S
CORTEZ         CLOUDY    50  34  54 NE6       30.03S
PAGE, AZ       CLEAR     77  22  13 NW5       29.91R
GRAND CANYON   CLEAR     44  26  49 CALM      30.10S
KINGMAN        CLEAR     70  25  18 S3        29.88F
FLAGSTAFF      PTCLDY    49  27  42 CALM      30.12F

$$

REGIONAL REPORTS    NEVADA/IDAHO/WYOMING

CITY           SKY/WX    TMP DP  RH WIND       PRES   REMARKS
LAS VEGAS, NV  PTCLDY    88  29  12 SW6       29.74R
ELY            CLEAR     55  29  36 NE3       30.16R
ELKO           CLEAR     60  35  39 E5        30.12R
POCATELLO, ID  CLEAR     51  38  60 E6        30.09S
BURLEY         CLEAR     53  40  61 SW8       30.06S
EVANSTON, WY   CLEAR     51  36  56 N8        30.21S
ROCK SPRINGS   CLEAR     50  31  48 NE17      30.17R
KEMMERER         N/A     45  32  61 N8        30.21S

$$




USA.gov is the U.S. government's official web portal to all federal, state and local government web resources and services.